STARLINK-11199 [DTC] (60404 NORAD) Tracking and Keplerian Element Data

This shows tracking and keplerian element data for the satellite.

Feedback or suggestion? Click here.




ElementValue
Catalog60404
NameSTARLINK-11199 [DTC]
Epoch Orbit1117
Epoch Day286.73646621
Epoch Year2024
RAAN95.2388
Inclination53.1584
Eccentricity7.45E-05
Argument of Perigee76.5989
Mean Anonmoly283.5112
Mean Motion15.69710521
Decay Rate6.73E-06
L11 60404U 24141G 24286.73646621 .00000673 00000+0 10406-4 0 9993
L22 60404 53.1584 95.2388 0000745 76.5989 283.5112 15.69710521 11176



Live tracking and technical data element details for STARLINK-11199 [DTC] (NORAD 60404). STARLINK-11199 [DTC] can be tracked NOW for your location showing map with azimuth and elevation plus other details from your city location.







IsCatalogInMostPopularTable: catalog: 60404, numindb: 8
Update: records affected: 1



GetName: 60404 STARLINK-11199 [DTC]

Hit Count: updated at: Tue, 03 Dec 2024 03:13:45 GMT